Theta_e
309 309 309 309 309 309 309 308 308 307 307 309 312 315 316 316 316 316 321 321 319 320 320 321 320 319 318 317 311 317 314 315 305 305 302 303 301 307 308 309 309 308 308 305 303 301 307 307 310 310 310 310 313 313
309 309 309 309 309 309 309 309 308 308 307 308 309 312 314 315 314 315 316 318 318 319 319 320 320 320 319 318 318 318 316 314 313 305 300 303 301 308 305 309 308 309 306 307 307 308 307 309 311 312 312 312 313 314
309 309 309 309 309 309 309 309 308 308 308 307 308 309 311 314 315 314 316 319 317 318 318 319 320 321 321 319 319 318 315 316 315 313 308 305 302 302 307 307 310 309 308 306 308 309 309 310 312 312 312 312 313 314
310 309 309 309 309 309 309 309 308 308 308 308 308 308 309 311 313 315 315 316 315 314 313 318 317 319 320 321 319 319 318 317 316 314 308 303 301 307 303 305 306 308 309 309 306 308 311 313 313 312 313 313 313 312
310 309 309 309 309 309 309 308 308 308 308 308 308 308 308 309 312 314 315 315 315 314 313 318 317 316 316 320 321 320 319 319 317 314 304 305 306 304 304 302 304 310 309 306 308 311 312 312 313 313 313 313 312 310
311 311 310 310 309 309 309 308 308 308 308 308 308 308 308 308 310 311 312 315 316 315 314 307 316 316 316 316 318 320 320 319 319 317 312 312 311 310 307 310 311 313 312 312 311 312 312 313 313 313 312 311 310 308
311 311 311 310 310 310 309 309 309 308 308 308 308 308 308 308 309 309 310 313 316 317 314 310 311 315 316 318 318 318 318 318 318 316 312 312 314 313 305 308 311 312 313 313 313 312 312 313 313 312 311 310 308 303
311 310 311 311 310 310 310 310 309 309 309 309 309 309 309 310 311 313 315 314 317 315 314 303 302 313 315 317 317 317 318 317 316 314 312 311 310 306 307 310 314 314 314 314 313 312 312 312 311 310 309 308 301 300
309 311 311 311 310 310 310 310 310 310 310 310 310 310 310 312 312 313 314 315 315 314 312 306 304 306 313 312 312 313 314 306 310 308 308 310 305 307 310 311 312 312 312 313 313 312 312 311 309 306 302 300 301 298
305 307 310 310 310 310 310 310 310 310 310 311 311 310 311 311 312 313 313 312 313 314 314 305 307 305 310 309 307 308 307 307 309 305 309 304 307 309 308 308 309 310 311 311 311 308 307 304 302 301 302 299 297 296
300 301 305 307 309 310 311 311 310 310 310 310 309 310 311 312 312 312 309 307 308 308 310 308 308 307 307 306 304 306 303 302 309 302 307 304 305 303 305 308 308 308 309 309 308 307 304 302 301 298 296 298 298 293
303 303 303 303 304 306 308 310 310 310 310 310 311 310 311 311 310 304 304 305 304 306 306 307 307 308 308 308 306 305 303 302 306 303 305 306 301 299 300 300 301 303 305 304 303 301 298 296 297 298 296 292 291 290
301 302 303 303 304 305 306 309 310 311 311 311 310 310 309 305 307 309 309 305 305 301 303 305 304 305 307 307 304 302 306 305 303 305 306 303 301 300 301 301 302 302 303 300 299 299 297 294 293 294 292 290 290 290
300 301 302 302 303 304 306 307 308 309 308 307 305 303 303 302 301 301 301 301 299 300 302 303 301 303 302 302 300 305 302 301 305 303 299 301 299 298 298 297 297 297 299 300 296 294 293 292 291 290 290 290 290 290
299 300 301 302 302 302 303 306 307 305 303 301 301 300 297 297 297 297 298 300 299 300 301 301 301 301 300 301 299 299 302 303 302 299 300 298 298 298 296 296 295 296 296 296 295 295 294 293 291 290 290 290 291 291
298 299 299 299 300 300 301 302 303 302 300 298 298 298 297 298 298 298 298 299 299 300 300 301 300 300 300 299 299 300 301 300 300 299 300 299 299 298 299 298 296 295 295 295 295 294 292 291 291 290 290 290 290 290
296 297 298 298 299 299 300 301 300 298 298 298 298 299 299 299 298 298 299 299 299 300 299 299 294 296 297 297 300 300 299 299 300 299 299 300 299 297 296 294 293 293 292 291 291 291 291 291 290 290 290 290 290 290
295 296 296 297 298 299 299 299 299 298 297 297 298 298 298 299 298 299 299 299 299 300 299 297 299 296 297 298 298 298 300 299 298 298 299 298 296 295 295 294 293 293 292 292 292 292 291 291 291 291 292 292 291 291
295 295 294 295 297 298 299 298 298 296 296 296 296 297 297 297 297 298 298 298 298 298 298 298 291 294 295 298 300 300 300 299 300 298 296 295 295 295 294 293 293 292 292 292 292 293 292 292 292 292 292 292 291 291
293 295 295 295 297 298 297 297 297 296 296 296 296 296 295 295 295 296 296 297 298 298 298 291 293 299 298 297 298 298 298 298 297 295 295 295 294 293 292 292 293 293 293 293 292 291 291 291 291 291 290 290 289 289
291 292 294 295 296 297 296 296 296 296 295 295 295 295 294 293 294 295 296 296 297 297 297 298 299 298 297 297 296 297 297 296 296 295 294 292 292 293 293 292 292 291 290 290 290 289 289 287 286 286 285 285 286 285
291 293 295 295 296 296 296 295 295 296 295 295 294 294 293 293 293 293 294 294 295 295 296 297 297 298 297 296 296 295 294 293 292 292 292 292 293 292 291 290 290 289 288 286 285 285 284 284 283 283 283 283 284 284
291 291 293 294 295 294 294 295 295 294 294 295 295 294 293 293 293 292 293 292 293 294 294 295 295 296 296 295 294 293 292 292 292 292 291 290 290 289 288 287 287 285 284 284 283 282 282 281 281 281 281 281 281 282
292 292 294 293 293 292 294 294 294 294 294 294 293 293 292 292 291 291 284 291 291 292 293 293 293 294 293 292 292 291 291 290 290 289 288 288 287 286 285 284 283 283 282 281 281 280 280 280 280 279 279 279 279 279
291 291 292 291 291 292 281 283 290 290 288 291 292 291 291 291 282 287 282 290 290 291 292 292 292 291 291 289 288 289 288 288 288 288 287 285 284 283 282 282 281 280 280 279 279 279 278 278 278 278 278 277 277 278
289 291 290 290 290 288 285 285 286 286 284 288 290 290 291 287 289 285 289 288 287 288 289 289 289 288 288 287 287 287 287 286 285 283 283 282 281 281 280 280 279 279 278 277 276 276 276 276 276 276 276 276 276 277
288 285 291 291 292 292 292 292 292 291 288 291 288 288 290 291 289 286 285 285 285 285 287 286 286 286 286 285 284 283 283 283 282 282 281 280 280 279 278 277 276 275 275 275 275 274 274 274 274 275 274 275 275 275
292 291 288 291 292 292 291 291 291 292 291 291 290 290 290 287 285 282 282 283 284 284 284 284 283 283 282 282 282 281 280 280 279 279 279 278 277 276 275 275 275 275 274 274 274 274 273 273 273 273 273 273 273 273
291 291 291 290 292 292 291 290 290 291 290 291 286 286 282 280 280 280 281 281 281 282 282 282 281 280 280 280 279 279 279 278 277 276 276 276 276 275 275 275 274 274 274 274 274 273 273 272 272 271 271 271 271 272
290 291 291 290 288 288 289 289 289 290 290 290 288 284 280 278 278 279 279 280 280 280 280 279 279 279 278 278 278 277 277 276 276 275 275 275 274 274 274 274 274 273 273 273 273 273 273 272 272 271 271 271 271 270
290 290 290 290 290 289 289 288 289 289 289 288 288 286 280 277 277 277 277 277 277 277 277 277 277 277 276 276 275 275 275 274 274 274 273 273 273 273 273 273 273 273 272 272 272 272 271 271 271 270 270 270 269 269
289 289 289 288 289 288 287 286 287 287 287 287 285 284 281 279 276 275 274 275 275 275 276 276 275 275 275 275 275 274 274 273 273 273 273 272 272 272 272 272 272 272 271 271 271 270 270 270 270 269 269 269 269 268
287 287 286 287 288 288 287 286 285 286 286 284 281 281 280 279 276 274 274 275 275 275 275 274 274 274 274 274 273 272 272 272 271 271 271 271 271 271 270 270 271 270 270 270 270 270 269 269 269 269 268 268 268 268
Wind_Speed
43 41 40 38 35 33 30 27 25 22 21 20 20 21 22 23 22 18 14 11 7 7 6 6 11 12 11 10 5 10 5 1 4 4 3 4 3 5 2 4 6 7 6 4 3 1 8 12 5 8 6 8 20 25
41 39 37 36 34 31 28 26 23 21 20 18 19 19 19 19 17 14 15 12 9 6 8 11 10 9 12 11 13 18 6 6 8 4 1 3 2 2 2 3 2 3 7 5 9 6 4 20 9 22 9 10 22 23
37 36 35 33 31 29 27 24 22 20 18 18 17 17 17 17 16 14 15 13 11 14 9 7 8 8 7 10 11 9 6 8 8 6 8 3 3 4 4 5 3 4 7 2 2 6 14 14 26 16 16 20 15 21
35 35 33 31 29 27 25 23 20 19 17 16 16 15 15 14 13 13 14 13 8 8 5 3 7 6 5 5 10 6 7 15 12 9 5 3 3 9 3 3 4 4 8 5 5 10 11 14 19 24 24 19 15 17
32 32 30 29 27 25 24 21 19 18 16 15 14 14 13 13 12 12 11 11 9 4 4 6 8 4 3 3 3 4 6 14 11 5 3 3 5 3 1 2 3 9 7 4 7 14 10 10 10 14 18 20 19 19
31 30 29 28 26 24 22 20 18 16 15 14 13 12 12 12 12 12 5 7 8 8 4 2 4 4 5 5 6 10 11 11 8 6 4 5 5 6 4 4 12 21 23 24 18 18 14 18 16 16 19 19 17 17
31 29 27 26 24 23 21 19 17 15 14 13 12 11 11 11 12 4 4 7 11 9 4 4 1 3 7 9 8 8 9 5 4 4 5 4 5 7 3 5 17 21 22 22 21 18 13 14 10 19 17 16 18 20
28 26 25 23 21 20 19 18 16 15 14 13 12 11 11 10 10 7 7 8 11 6 3 3 3 2 5 3 3 3 4 5 2 2 2 3 4 2 3 16 22 21 21 23 24 20 18 11 10 19 18 20 21 17
29 29 24 22 20 16 16 17 16 15 14 14 13 12 11 8 5 7 7 6 8 3 6 3 4 3 5 3 2 2 2 2 1 1 2 3 1 4 5 7 10 11 9 9 10 15 12 14 20 19 24 20 16 11
23 24 25 23 19 17 16 16 16 15 15 14 15 5 4 7 10 10 4 3 3 2 2 3 4 1 2 3 2 1 2 1 1 3 2 2 3 10 12 16 17 15 11 12 10 12 18 21 24 22 15 10 7 4
22 18 18 19 20 19 17 18 18 16 14 11 4 3 12 13 5 3 3 4 3 3 3 2 2 3 2 2 2 1 1 0 2 3 2 2 2 5 15 11 8 5 8 7 5 14 17 18 16 17 11 5 2 7
25 23 20 17 17 17 16 18 18 18 11 7 9 15 9 2 2 4 2 2 2 2 1 1 2 3 3 3 4 3 2 1 5 3 1 2 1 7 8 11 12 10 9 14 16 23 24 22 13 7 4 4 7 9
24 24 24 22 18 16 16 15 18 16 13 15 4 4 2 4 2 4 6 1 2 1 1 2 2 1 2 2 5 2 3 3 5 2 2 1 5 9 12 14 14 11 10 16 17 14 15 13 6 3 7 8 8 9
18 19 20 20 18 16 16 18 18 19 6 4 3 3 1 2 2 1 2 2 3 3 4 4 3 2 2 2 2 2 0 0 2 1 2 2 7 9 13 14 13 14 11 8 14 11 6 4 3 4 6 8 9 10
15 16 15 15 11 10 10 10 11 6 4 4 3 2 2 4 4 4 4 5 4 4 5 5 4 2 2 2 2 2 1 1 2 1 2 7 9 8 8 6 10 11 9 7 2 4 7 7 8 7 8 8 10 12
10 10 13 11 8 7 7 9 9 4 4 4 4 4 7 5 4 4 5 4 4 7 7 4 2 2 1 2 2 1 2 1 1 1 5 4 5 4 5 7 6 2 3 4 6 8 9 11 10 10 9 9 10 14
3 8 8 7 8 7 6 8 4 5 5 3 3 9 7 10 7 6 7 5 6 3 1 2 3 2 2 2 1 1 2 1 4 3 3 2 1 2 3 4 6 6 6 7 9 9 9 10 9 10 12 15 18 21
11 8 6 6 5 6 9 5 5 5 5 4 3 6 7 8 10 7 7 5 2 3 4 2 4 2 2 2 1 3 7 8 9 9 8 5 5 5 2 4 3 5 7 8 8 8 8 11 13 15 19 22 27 27
11 8 7 7 8 5 4 5 5 4 5 5 9 8 6 8 9 7 5 5 6 6 6 2 3 2 2 4 2 7 9 9 10 8 8 7 4 3 3 3 5 7 7 7 8 10 12 14 17 20 24 26 29 31
7 9 9 7 8 4 4 5 5 4 3 3 5 6 5 3 4 5 5 4 2 1 1 1 3 3 2 3 2 4 7 5 10 10 8 4 1 1 2 3 3 5 7 9 12 17 20 23 24 26 28 29 32 34
7 7 8 8 7 8 5 4 4 3 4 2 9 4 4 5 3 3 4 4 2 2 1 2 3 6 7 6 6 5 4 5 6 6 5 4 3 3 2 2 5 9 14 18 22 24 25 25 27 29 29 27 24 23
9 8 5 6 5 3 4 3 2 3 2 5 5 3 4 2 2 2 2 2 2 2 0 1 2 7 8 6 6 6 4 4 5 4 5 4 4 5 7 9 13 16 19 19 20 21 22 24 26 26 26 27 27 27
7 6 4 3 3 4 2 3 1 2 1 3 5 2 2 2 3 4 2 3 3 3 2 3 4 5 7 8 9 8 7 6 7 5 4 1 3 6 10 13 16 17 18 18 19 21 23 25 26 27 28 29 30 30
4 4 4 4 3 1 1 1 1 2 2 3 2 1 2 4 4 2 2 3 2 1 4 5 7 9 10 10 9 9 7 5 2 1 3 7 9 10 13 14 14 15 16 18 22 23 25 27 29 30 30 31 30 30
3 2 2 2 1 0 3 3 1 1 2 2 2 2 4 5 2 2 2 3 7 5 3 3 10 10 10 8 7 6 2 1 4 8 9 10 10 10 10 11 14 16 20 24 26 29 29 30 30 30 31 30 30 30
2 2 3 3 1 1 4 2 3 5 3 3 4 3 4 3 2 3 1 3 5 5 5 2 4 6 5 4 3 3 4 6 8 9 10 9 11 12 13 16 19 21 22 25 27 29 30 29 29 30 30 29 29 29
2 3 2 4 3 3 3 4 3 3 3 3 3 2 2 3 2 2 3 4 4 4 2 2 4 4 3 4 3 5 8 10 10 9 7 8 10 13 17 21 23 24 24 24 25 26 27 28 28 26 25 23 21 21
2 2 2 2 5 5 2 1 1 2 2 3 7 2 3 3 2 2 3 3 3 2 1 3 6 2 0 1 3 6 8 9 8 6 7 11 14 17 17 19 19 21 21 22 22 22 23 24 23 22 20 18 19 21
2 2 3 2 2 2 2 2 2 2 4 4 3 2 3 4 4 5 5 4 3 4 5 6 4 3 4 5 6 7 6 4 4 7 11 14 15 17 19 20 21 21 21 22 21 22 22 21 20 19 17 18 20 21
2 5 0 1 1 1 2 6 3 4 2 3 5 7 6 7 6 4 2 4 4 4 2 2 3 5 6 6 8 9 11 13 13 14 17 19 20 21 22 22 22 23 23 23 23 22 20 19 18 17 18 18 18 18
2 2 2 3 2 3 7 6 4 3 3 4 5 3 7 7 6 3 1 1 2 3 4 5 5 4 6 7 9 10 12 13 16 18 19 21 22 22 22 23 23 23 23 23 22 21 20 20 20 20 19 18 17 17
3 4 6 2 1 3 4 2 3 1 1 1 1 2 5 5 4 4 2 1 3 3 2 3 5 6 7 10 12 14 16 19 20 20 21 21 21 22 23 23 22 22 21 21 20 19 18 18 18 18 17 16 16 15
2 2 2 3 2 1 2 5 2 0 1 2 3 3 3 2 3 2 1 1 1 2 4 5 6 8 11 12 14 16 17 19 20 21 21 21 22 23 23 22 21 20 19 18 18 17 16 16 15 15 15 15 14 14
Wind_Direction
156 157 158 157 158 156 152 151 149 151 152 147 145 146 152 158 170 179 168 160 150 109 112 143 147 154 152 146 135 158 84 328 54 73 123 197 154 220 132 186 181 171 156 198 102 58 276 179 122 168 204 185 185 198
155 157 157 158 157 154 151 151 151 152 150 148 142 145 150 158 166 174 166 164 153 122 118 116 132 161 187 177 150 164 169 161 160 92 127 127 156 167 148 233 113 240 190 184 186 214 253 192 223 214 211 217 205 214
154 156 157 157 156 155 152 154 155 153 149 146 143 146 151 156 162 168 163 149 137 117 113 116 106 127 153 179 176 150 187 169 171 143 145 151 164 134 170 237 198 245 176 212 93 254 240 239 228 246 240 238 238 220
156 157 156 157 156 156 156 159 159 155 150 147 143 145 149 153 158 162 165 156 149 125 114 126 138 128 131 165 192 181 192 179 167 160 118 139 156 195 208 210 174 203 152 207 257 278 273 262 249 249 250 237 222 195
158 155 155 156 157 159 161 161 160 157 152 149 147 147 148 153 155 157 161 160 164 139 135 133 144 138 162 174 186 197 194 189 167 137 113 207 170 127 98 72 259 192 198 168 236 249 234 249 253 257 241 225 200 186
152 153 157 158 158 164 164 162 161 159 155 152 153 153 152 152 155 148 127 167 164 136 116 112 162 161 174 184 184 166 181 194 189 172 179 202 193 179 164 210 249 245 249 254 256 280 254 270 274 245 220 196 189 192
149 151 153 157 161 163 164 164 162 161 161 157 158 160 158 158 164 159 148 159 168 160 129 78 21 173 180 170 172 178 189 192 202 177 199 188 178 187 164 223 255 259 266 270 267 269 257 251 228 200 190 190 185 171
148 150 152 152 155 157 159 162 163 160 156 154 154 152 153 153 151 129 116 144 159 145 130 111 270 150 178 176 164 181 180 175 175 178 182 194 158 151 245 246 271 272 272 271 272 268 260 253 201 186 194 181 164 159
142 155 153 154 151 154 156 154 150 147 147 148 145 142 139 154 137 138 127 144 168 137 136 116 148 217 167 126 132 144 179 42 221 181 219 163 196 222 259 314 299 298 282 287 282 239 245 194 175 173 163 151 156 164
102 115 138 156 156 161 160 155 157 156 151 145 139 122 115 132 135 142 139 162 156 128 93 100 135 132 140 143 63 113 35 158 223 245 168 176 255 289 332 320 298 283 281 273 230 169 172 159 157 152 157 127 142 180
95 96 117 134 144 156 160 161 158 152 149 138 121 83 129 128 124 140 80 57 46 45 27 56 172 135 119 112 170 134 165 322 238 256 194 279 287 319 342 346 340 294 256 224 212 175 169 157 129 110 123 118 209 253
87 89 97 117 132 142 148 157 167 169 158 134 112 116 126 114 80 87 81 77 58 183 54 83 105 111 129 154 110 157 163 122 244 143 145 260 343 43 65 79 85 98 121 117 128 117 105 100 106 82 48 282 302 310
85 88 92 93 103 112 131 154 163 172 164 142 114 112 84 5 83 170 162 189 131 59 82 132 65 74 132 168 89 106 187 223 133 193 221 63 40 83 93 96 86 70 78 95 90 94 94 83 72 353 305 298 307 306
86 90 95 97 98 111 125 137 149 146 104 81 76 82 45 104 54 88 72 91 116 107 103 105 78 70 29 66 86 188 117 72 205 218 262 12 36 93 96 99 102 109 104 39 106 101 91 61 5 330 316 310 308 306
88 89 99 98 97 100 123 146 142 123 82 89 93 92 83 119 102 131 110 111 99 123 120 105 84 90 28 86 27 83 50 283 58 80 8 41 61 100 102 120 117 101 82 82 69 340 331 339 341 341 337 339 335 331
100 104 82 74 76 88 100 122 145 105 67 62 71 95 133 112 100 110 121 114 114 131 119 105 111 86 59 106 74 242 118 56 123 142 62 73 57 83 96 92 73 8 28 335 323 331 334 333 336 340 344 345 337 329
87 74 63 56 61 70 96 117 76 63 73 75 70 112 110 107 115 114 110 101 119 96 81 99 83 184 74 80 119 45 126 109 85 127 177 215 335 14 57 21 354 341 336 332 332 333 338 334 337 336 331 330 326 325
76 59 50 52 47 74 69 61 76 70 68 92 103 105 102 119 125 113 100 104 146 131 143 156 128 81 122 139 170 182 172 170 183 197 245 227 202 187 297 337 1 356 347 340 340 347 353 343 336 331 324 318 314 317
60 45 39 48 41 48 49 47 53 84 65 77 110 109 108 121 120 131 139 97 80 95 124 117 81 152 208 211 190 188 200 205 213 193 184 184 212 285 315 337 338 338 348 358 353 336 326 322 318 313 312 312 310 311
42 34 30 34 33 50 56 38 50 72 104 113 121 120 109 112 167 160 149 146 215 305 158 125 196 182 149 132 121 148 161 171 187 172 168 180 211 314 307 323 334 332 321 315 314 312 310 310 308 308 310 310 310 308
16 19 21 21 38 48 69 57 64 82 122 112 130 115 90 128 152 171 181 202 250 271 263 191 152 136 125 117 103 103 161 190 202 217 212 185 183 216 267 308 323 323 323 320 317 315 315 318 319 320 321 320 319 318
12 19 36 40 46 55 70 72 69 106 95 126 146 151 129 157 167 209 191 230 283 343 9 96 164 183 175 162 166 177 185 220 224 203 167 180 207 259 294 309 316 320 322 318 319 322 325 326 325 324 322 320 319 316
0 6 21 359 25 49 42 156 123 131 129 174 142 93 128 137 178 165 242 234 240 254 192 143 158 187 204 178 176 175 176 180 171 158 159 202 299 311 314 319 323 324 324 326 328 329 328 327 325 324 324 322 322 320
355 349 352 10 34 23 112 100 144 175 140 147 139 202 177 155 159 206 241 188 156 204 184 180 185 188 174 174 171 153 147 153 175 286 334 331 327 326 324 323 323 326 328 329 327 327 328 328 328 328 327 326 326 325
2 336 351 313 273 32 25 347 309 106 209 202 156 233 179 161 114 205 230 152 149 131 108 142 179 188 183 170 169 152 129 336 326 320 320 323 326 323 319 324 328 332 330 328 330 331 331 330 329 328 329 329 329 327
232 232 193 216 237 171 213 190 220 207 175 191 209 154 147 129 145 238 79 107 130 120 100 108 132 142 154 174 209 261 307 331 333 325 325 325 330 333 336 334 332 332 332 331 330 329 328 328 329 330 331 333 331 330
262 268 233 231 243 253 259 246 225 191 183 198 176 142 142 179 175 89 125 107 139 137 140 274 261 251 252 276 297 328 335 340 335 330 329 323 326 332 333 333 333 333 332 330 329 327 326 327 329 331 334 336 347 350
260 260 200 264 250 238 224 211 225 221 230 169 143 144 160 156 118 102 124 131 154 178 244 317 324 349 315 291 323 338 335 336 345 342 320 315 318 320 322 326 327 327 329 329 329 330 329 331 331 332 331 328 321 321
265 303 296 356 6 360 12 322 306 51 355 186 112 103 100 95 135 152 152 170 220 270 285 299 307 320 316 315 318 326 343 348 324 305 312 317 323 326 331 333 334 333 332 331 333 333 334 334 331 327 321 315 316 318
339 355 268 286 29 343 10 4 6 23 67 119 120 119 115 122 128 151 230 284 283 269 255 285 320 325 321 321 331 335 333 333 333 331 331 332 333 331 332 332 331 331 331 333 334 335 333 330 329 326 325 324 325 325
335 340 354 356 42 30 345 329 13 42 84 67 68 104 132 145 149 132 151 80 17 327 302 301 319 341 341 341 337 330 330 328 327 326 326 326 326 326 327 329 329 330 331 332 333 334 337 336 335 336 337 336 337 337
333 4 359 333 45 337 323 348 320 241 142 166 119 131 147 145 137 169 180 224 328 339 353 352 343 341 338 339 337 333 328 325 323 322 320 320 321 323 324 326 327 327 329 330 334 335 335 335 336 337 339 340 341 341
254 240 239 264 267 261 324 331 337 306 134 97 82 116 137 133 109 149 164 233 4 337 334 342 341 339 339 335 328 324 322 319 318 320 321 320 318 319 321 323 325 329 331 332 332 333 335 337 337 338 340 341 342 342